This is the latest recevied weather packets stored in our database for station/object W3EJE-13. If no packets are shown the sender has not sent any weather packets the latest 1 day(s).
| Time | Temp. | Humidity | Pressure | Rain* | Wind** | Luminosity | Snow |
|---|---|---|---|---|---|---|---|
| 1778015193 | 21.67° C | 48% | 1011.4 hPa | 0 mm | 2.68 m/s, 224° | 147 W/m² | - |
| 1778014890 | 21.67° C | 47% | 1011.6 hPa | 0 mm | 2.68 m/s, 315° | 154 W/m² | - |
| 1778014587 | 22.22° C | 47% | 1011.4 hPa | 0 mm | 0.89 m/s, 23° | 165 W/m² | - |
| 1778014285 | 22.22° C | 47% | 1011.3 hPa | 0 mm | 1.34 m/s, 185° | 192 W/m² | - |
| 1778013982 | 22.22° C | 47% | 1011.4 hPa | 0 mm | 1.79 m/s, 333° | 223 W/m² | - |
| 1778013679 | 22.22° C | 48% | 1011.2 hPa | 0 mm | 1.34 m/s, 189° | 200 W/m² | - |
| 1778013376 | 22.78° C | 46% | 1011.3 hPa | 0 mm | 4.02 m/s, 322° | 193 W/m² | - |
| 1778013073 | 22.78° C | 47% | 1011 hPa | 0 mm | 4.02 m/s, 198° | 211 W/m² | - |
| 1778012769 | 22.78° C | 46% | 1011.2 hPa | 0 mm | 4.47 m/s, 9° | 288 W/m² | - |
| 1778012465 | 23.89° C | 45% | 1011.1 hPa | 0 mm | 2.68 m/s, 263° | 223 W/m² | - |
| 1778012162 | 23.33° C | 44% | 1011.1 hPa | 0 mm | 1.34 m/s, 276° | 476 W/m² | - |
| 1778011860 | 23.89° C | 43% | 1011.1 hPa | 0 mm | 3.13 m/s, 19° | 429 W/m² | - |
| 1778011557 | 23.89° C | 44% | 1011.1 hPa | 0 mm | 3.13 m/s, 356° | 492 W/m² | - |
| 1778011254 | 23.89° C | 43% | 1011.2 hPa | 0 mm | 2.24 m/s, 292° | 541 W/m² | - |
| 1778010950 | 23.89° C | 46% | 1011.1 hPa | 0 mm | 3.13 m/s, 7° | 539 W/m² | - |
| 1778010648 | 23.33° C | 45% | 1011 hPa | 0 mm | 4.02 m/s, 10° | 464 W/m² | - |
| 1778010345 | 24.44° C | 45% | 1010.9 hPa | 0 mm | 2.68 m/s, 290° | 517 W/m² | - |
| 1778010040 | 25° C | 44% | 1010.8 hPa | 0 mm | 2.24 m/s, 159° | 594 W/m² | - |
| 1778009737 | 23.89° C | 47% | 1011.1 hPa | 0 mm | 1.79 m/s, 261° | 698 W/m² | - |
| 1778009435 | 23.89° C | 45% | 1011 hPa | 0 mm | 3.13 m/s, 297° | 580 W/m² | - |
| 1778009133 | 23.89° C | 46% | 1011 hPa | 0 mm | 1.79 m/s, 349° | 524 W/m² | - |
| 1778008830 | 24.44° C | 46% | 1011 hPa | 0 mm | 1.79 m/s, 268° | 734 W/m² | - |
| 1778008528 | 23.89° C | 46% | 1011.2 hPa | 0 mm | 0.45 m/s, 268° | 504 W/m² | - |
| 1778008226 | 24.44° C | 48% | 1011 hPa | 0 mm | 1.79 m/s, 255° | 584 W/m² | - |
| 1778007920 | 23.89° C | 47% | 1011 hPa | 0 mm | 1.34 m/s, 303° | 629 W/m² | - |
* Rain latest hour (hover to see other rain measurements)
** Current wind speed in m/s (hover to see current wind gust speed)